Previsão horária em Plosko-Taranivka

Hoje, 3 Março, Quarta-feira

Tempo Temperatura Precipitação Vento Pressão Humidade
00:00 -1°C° 0 mm 7 m/s 752 mmHg 86%
01:00 -1°C° 0 mm 7 m/s 752 mmHg 86%
02:00 -1°C° 0 mm 7 m/s 752 mmHg 85%
03:00 -2°C° 0 mm 7 m/s 753 mmHg 87%
04:00 -2°C° 0 mm 6 m/s 753 mmHg 88%
05:00 -3°C° 0 mm 6 m/s 753 mmHg 89%
06:00 -2°C° 0 mm 6 m/s 754 mmHg 87%
07:00 -2°C° 0 mm 6 m/s 754 mmHg 85%
08:00 -2°C° 0 mm 6 m/s 755 mmHg 84%
09:00 -1°C° 0 mm 6 m/s 755 mmHg 78%
10:00 +1°C° 0 mm 6 m/s 756 mmHg 72%
11:00 +2°C° 0 mm 6 m/s 756 mmHg 66%
12:00 +2°C° 0 mm 6 m/s 756 mmHg 63%
13:00 +3°C° 0 mm 6 m/s 756 mmHg 60%
14:00 +3°C° 0 mm 6 m/s 756 mmHg 58%
15:00 +2°C° 0 mm 5 m/s 756 mmHg 62%
16:00 +2°C° 0 mm 5 m/s 756 mmHg 66%
17:00 +1°C° 0 mm 4 m/s 756 mmHg 71%
18:00 +1°C° 0 mm 3 m/s 756 mmHg 76%
19:00 0°C° 0 mm 3 m/s 756 mmHg 82%
20:00 +1°C° 0 mm 2 m/s 757 mmHg 87%
21:00 -1°C° 0 mm 2 m/s 756 mmHg 89%
22:00 -1°C° 0 mm 3 m/s 756 mmHg 91%
23:00 -1°C° 0 mm 3 m/s 755 mmHg 93%

Amanhã, 4 Março, Quinta-feira

Tempo Temperatura Precipitação Vento Pressão Humidade
00:00 -1°C° 0 mm 3 m/s 755 mmHg 92%
01:00 -1°C° 0 mm 3 m/s 755 mmHg 91%
02:00 -2°C° 0 mm 4 m/s 755 mmHg 89%
03:00 -2°C° 0 mm 4 m/s 754 mmHg 89%
04:00 -2°C° 0 mm 4 m/s 754 mmHg 88%
05:00 -2°C° 0 mm 4 m/s 753 mmHg 88%
06:00 -1°C° 0 mm 5 m/s 753 mmHg 83%
07:00 -1°C° 0 mm 5 m/s 752 mmHg 79%
08:00 -1°C° 0 mm 6 m/s 752 mmHg 74%
09:00 +2°C° 0 mm 6 m/s 751 mmHg 67%
10:00 +3°C° 0 mm 7 m/s 751 mmHg 60%
11:00 +5°C° 0 mm 7 m/s 750 mmHg 54%
12:00 +6°C° 0 mm 7 m/s 749 mmHg 54%
13:00 +8°C° 0 mm 7 m/s 749 mmHg 54%
14:00 +9°C° 0 mm 8 m/s 748 mmHg 55%
15:00 +8°C° 0 mm 7 m/s 747 mmHg 58%
16:00 +8°C° 0 mm 7 m/s 747 mmHg 62%
17:00 +7°C° 0 mm 6 m/s 746 mmHg 65%
18:00 +5°C° 0 mm 6 m/s 746 mmHg 71%
19:00 +5°C° 0 mm 7 m/s 746 mmHg 77%
20:00 +4°C° 0 mm 7 m/s 746 mmHg 82%
21:00 +3°C° 0 mm 7 m/s 745 mmHg 84%
22:00 +3°C° 0 mm 6 m/s 745 mmHg 86%
23:00 +2°C° 0 mm 6 m/s 745 mmHg 87%

Depois de amanhã, 5 Março, Sexta-feira

Tempo Temperatura Precipitação Vento Pressão Humidade
00:00 +2°C° 0 mm 6 m/s 745 mmHg 86%
01:00 +2°C° 0 mm 5 m/s 745 mmHg 85%
02:00 +2°C° 0 mm 5 m/s 745 mmHg 84%
03:00 +1°C° 0 mm 4 m/s 745 mmHg 85%
04:00 +1°C° 0 mm 4 m/s 745 mmHg 86%
05:00 +2°C° 0 mm 3 m/s 745 mmHg 87%
06:00 +2°C° 0.1 mm 3 m/s 745 mmHg 86%
07:00 +3°C° 0.1 mm 3 m/s 745 mmHg 86%
08:00 +3°C° 0.1 mm 3 m/s 745 mmHg 86%
09:00 +3°C° 0.6 mm 3 m/s 745 mmHg 87%
10:00 +4°C° 0.6 mm 2 m/s 745 mmHg 89%
11:00 +5°C° 0.6 mm 2 m/s 745 mmHg 90%
12:00 +6°C° 0.1 mm 2 m/s 744 mmHg 85%
13:00 +7°C° 0.1 mm 2 m/s 744 mmHg 81%
14:00 +8°C° 0.1 mm 2 m/s 744 mmHg 77%
15:00 +7°C° 0.1 mm 3 m/s 744 mmHg 81%
16:00 +5°C° 0.1 mm 3 m/s 744 mmHg 84%
17:00 +5°C° 0.1 mm 3 m/s 743 mmHg 88%
18:00 +4°C° 0.2 mm 4 m/s 744 mmHg 90%
19:00 +1°C° 0.2 mm 5 m/s 745 mmHg 92%
20:00 0°C° 0.2 mm 5 m/s 745 mmHg 94%
21:00 0°C° 0 mm 5 m/s 746 mmHg 92%
22:00 -1°C° 0 mm 5 m/s 747 mmHg 90%
23:00 -1°C° 0 mm 5 m/s 747 mmHg 88%

6 Março, Sábado

Tempo Temperatura Precipitação Vento Pressão Humidade
00:00 -2°C° 0 mm 5 m/s 748 mmHg 87%
01:00 -2°C° 0 mm 5 m/s 748 mmHg 87%
02:00 -3°C° 0 mm 4 m/s 749 mmHg 87%
03:00 -3°C° 0 mm 4 m/s 749 mmHg 84%
04:00 -3°C° 0 mm 4 m/s 749 mmHg 80%
05:00 -3°C° 0 mm 4 m/s 750 mmHg 77%
06:00 -3°C° 0 mm 4 m/s 750 mmHg 74%
07:00 -3°C° 0 mm 4 m/s 751 mmHg 71%
08:00 -3°C° 0 mm 4 m/s 751 mmHg 69%
09:00 -2°C° 0 mm 5 m/s 752 mmHg 63%
10:00 -1°C° 0 mm 5 m/s 752 mmHg 57%
11:00 -1°C° 0 mm 5 m/s 752 mmHg 50%
12:00 -1°C° 0 mm 6 m/s 752 mmHg 50%
13:00 -1°C° 0 mm 6 m/s 752 mmHg 49%
14:00 -1°C° 0 mm 7 m/s 752 mmHg 48%
15:00 -2°C° 0 mm 6 m/s 752 mmHg 48%
16:00 -3°C° 0 mm 6 m/s 753 mmHg 47%
17:00 -2°C° 0 mm 5 m/s 753 mmHg 47%
18:00 -3°C° 0 mm 4 m/s 754 mmHg 51%
19:00 -3°C° 0 mm 4 m/s 754 mmHg 55%
20:00 -4°C° 0 mm 3 m/s 755 mmHg 60%
21:00 -4°C° 0 mm 3 m/s 755 mmHg 59%
22:00 -4°C° 0 mm 3 m/s 755 mmHg 59%
23:00 -4°C° 0 mm 3 m/s 756 mmHg 58%

7 Março, Domingo

Tempo Temperatura Precipitação Vento Pressão Humidade
00:00 -5°C° 0 mm 3 m/s 756 mmHg 59%
01:00 -5°C° 0 mm 3 m/s 756 mmHg 59%
02:00 -5°C° 0 mm 3 m/s 756 mmHg 59%
03:00 -5°C° 0 mm 3 m/s 756 mmHg 59%
04:00 -5°C° 0 mm 3 m/s 756 mmHg 59%
05:00 -5°C° 0 mm 3 m/s 756 mmHg 59%
06:00 -5°C° 0 mm 4 m/s 756 mmHg 56%
07:00 -4°C° 0 mm 4 m/s 756 mmHg 52%
08:00 -5°C° 0 mm 5 m/s 756 mmHg 48%
09:00 -4°C° 0 mm 6 m/s 755 mmHg 44%
10:00 -3°C° 0 mm 6 m/s 755 mmHg 40%
11:00 -2°C° 0 mm 7 m/s 754 mmHg 36%
12:00 -1°C° 0 mm 7 m/s 753 mmHg 36%
13:00 -1°C° 0 mm 7 m/s 753 mmHg 35%
14:00 0°C° 0 mm 8 m/s 752 mmHg 35%
15:00 -1°C° 0 mm 7 m/s 751 mmHg 38%
16:00 -1°C° 0 mm 7 m/s 751 mmHg 41%
17:00 -2°C° 0 mm 6 m/s 750 mmHg 44%
18:00 -3°C° 0 mm 6 m/s 750 mmHg 47%
19:00 -3°C° 0 mm 6 m/s 750 mmHg 50%
20:00 -4°C° 0 mm 7 m/s 750 mmHg 52%
21:00 -4°C° 0 mm 7 m/s 750 mmHg 53%
22:00 -4°C° 0 mm 7 m/s 749 mmHg 53%
23:00 -4°C° 0 mm 7 m/s 749 mmHg 54%

8 Março, Segunda-feira

Tempo Temperatura Precipitação Vento Pressão Humidade
00:00 -4°C° 0 mm 7 m/s 749 mmHg 56%
01:00 -4°C° 0 mm 6 m/s 748 mmHg 57%
02:00 -4°C° 0 mm 6 m/s 748 mmHg 59%
03:00 -4°C° 0 mm 6 m/s 748 mmHg 61%
04:00 -4°C° 0 mm 5 m/s 748 mmHg 63%
05:00 -4°C° 0 mm 5 m/s 748 mmHg 65%
06:00 -4°C° 0 mm 5 m/s 748 mmHg 64%
07:00 -2°C° 0 mm 5 m/s 748 mmHg 64%
08:00 -2°C° 0 mm 5 m/s 748 mmHg 63%
09:00 -1°C° 0 mm 5 m/s 748 mmHg 61%
10:00 0°C° 0 mm 5 m/s 748 mmHg 59%
11:00 +1°C° 0 mm 5 m/s 747 mmHg 57%
12:00 +2°C° 0 mm 5 m/s 747 mmHg 56%
13:00 +2°C° 0 mm 5 m/s 747 mmHg 56%
14:00 +3°C° 0 mm 6 m/s 746 mmHg 55%
15:00 +2°C° 0 mm 5 m/s 746 mmHg 57%
16:00 +2°C° 0 mm 5 m/s 746 mmHg 59%
17:00 +1°C° 0 mm 4 m/s 745 mmHg 60%
18:00 +1°C° 0 mm 4 m/s 745 mmHg 62%
19:00 0°C° 0 mm 4 m/s 745 mmHg 64%
20:00 0°C° 0 mm 5 m/s 745 mmHg 66%
21:00 -1°C° 0 mm 4 m/s 745 mmHg 67%
22:00 -1°C° 0 mm 4 m/s 745 mmHg 68%
23:00 -1°C° 0 mm 4 m/s 745 mmHg 69%
Mostrar mais

Necessitamos do seu Consentimento

A Meteoprog e os seus Fornecedores de Serviços podem armazenar e aceder a dados pessoais como cookies, identificadores do dispositivo ou outras tecnologias semelhantes existentes no seu dispositivo e processar estes dados para personalizar conteúdos e anúncios, assim como funcionalidades nas redes sociais e análise de tráfego.

  • Armazenar e/ou aceder a informações no seu dispositivo

    Os cookies, identificadores do dispositivo ou outras informações podem ser armazenados ou acedidos no seu dispositivo, para os fins acima indicados.

  • Anúncios e conteúdos personalizados, medição de anúncios e conteúdos, dados sobre o público-alvo e desenvolvimento de produtos

    Os anúncios e os conteúdos podem ser personalizados com base num perfil. Podem ser adicionados dados adicionais para uma maior personalização dos anúncios e dos conteúdos. A eficácia dos anúncios e dos conteúdos pode ser medida. Podem ser obtidas informações sobre o público que visualizou os anúncios e os conteúdos. Estes dados podem ser usados para desenvolver ou melhorar sistemas, softwares ou a experiência do utilizador.

Ao clicar em "Eu concordo”, permitirá o uso de cookies, identificadores do dispositivo e web beacons mencionados ou outras tecnologias semelhantes. As configurações do navegador do seu dispositivo podem ser alteradas.

Para certos fins, podem ser invocados interesses legítimos ao invés de consentimento. Pode ler mais informação sobre este assunto na nossa Política de Privacidade e Cookies.